Weather Roundup
Issued by NWS Chicago, IL

Home | Current Version | Previous Version | Graphics & Text | Print | Product List | Glossary On
Versions: 1 2 3 4 5 6 7 8 9 10 11 12 13 14 15 16 17 18 19 20 21 22 23 24 25 26 27 28 29 30 31 32 33 34 35 36 37 38 39 40 41 42 43 44 45 46 47 48 49 50
000
NZUS59 KLOT 120208
HRRLOT

CHICAGO AREA WEATHER ROUNDUP
NATIONAL WEATHER SERVICE CHICAGO/ROMEOVILLE IL
800 PM CST MON DEC 11 2017

NOTE: "FAIR" INDICATES FEW OR NO CLOUDS BELOW 12,000 FEET WITH NO
SIGNIFICANT WEATHER AND/OR OBSTRUCTIONS TO VISIBILITY.

* THESE STATIONS ARE NOT UNDER NWS QUALITY CONTROL. THEY ALSO MAY NOT
  REPORT WEATHER SUCH AS PRECIPITATION OR FOG.

ILZ005-006-012>014-019>023-120300-
NORTHEAST ILLINOIS

CITY           SKY/WX    TMP DP  RH WIND       PRES   REMARKS
OHARE          CLOUDY    33  28  81 NW17      29.79R WCI  22
MIDWAY         CLOUDY    34  31  88 N12       29.78R WCI  25
AURORA         CLOUDY    32  29  88 NW13      29.82R FOG     WCI  22
LANSING*       LGT SNOW  33  32  99 NW9       29.77R WCI  25
JOLIET*        CLOUDY    34  32  93 NW6       29.80R WCI  29
WAUKEGAN       CLOUDY    31  27  85 NW8       29.79R WCI  23
DUPAGE AIRPORT CLOUDY    32  30  92 NW14      29.80R FOG     WCI  22
WHEELING       CLOUDY    33  29  85 NW12      29.81R WCI  24
KANKAKEE*      LGT RAIN  33  32  93 NW16      29.79R WCI  23
MORRIS*        CLOUDY    33  31  92 NW10      29.81R WCI  25
LEWIS AIRPORT* CLOUDY    32  31  95 N13       29.79R WCI  23
NORTHERLY ISL    N/A     34  29  82 NW8         N/A  WCI  27
$$

WIZ051-052-058>065-066-070>072-120300-
SOUTHEAST WISCONSIN

CITY           SKY/WX    TMP DP  RH WIND       PRES   REMARKS
MILWAUKEE      CLOUDY    32  25  75 NW17G32   29.82R WCI  21
KENOSHA*       CLOUDY    32  25  75 NW17G25   29.80R WCI  21
RACINE*        CLOUDY    32  25  75 N18G25    29.82R WCI  20
BURLINGTON     CLOUDY    42  40  93 N16G23    29.82R
WAUKESHA       CLOUDY    28  23  80 NW16G25   29.83R WCI  17
WEST BEND      CLOUDY    28  25  86 NW15G25   29.83R WCI  17
$$

INZ001>003-010>013-019-020-120300-
NORTHWEST INDIANA

CITY           SKY/WX    TMP DP  RH WIND       PRES   REMARKS
GARY*          CLOUDY    34  34 100 NW14      29.77S FOG     WCI  24
MICHIGAN CITY* NOT AVBL
RENSSELAER*    NOT AVBL
VALPARAISO     LGT SNOW  33  31  92 NW5       29.74S FOG     WCI  29
$$

LMZ740>746-120300-
SOUTHERN LAKE MICHIGAN

STATION/POSITION TIME  SKY/WX   TEMP WIND        PRES    VSBY
                                AIR  DIR/SP/G
                 (UTC)          (F)  (DEG/KT/KT) (MB)    (MI)
HARRISON CRIB    0140            34  320/ 18/ 19   N/A
BURNHAM HARBOR   0200            34  320/  8/ 12   N/A
CALUMET HARBOR   0148            33  300/ 10/ 13 1007.6R
BURNS HARBOR     0140            35  320/ 13/ 18 1008.1R
MICHIGAN CITY    0140            33  300/  7/  8   N/A
$$

ABBREVIATIONS USED IN REMARKS
   TC - TEMPERATURE IN CELSIUS
  WCI - WIND CHILL INDEX
   HX - HEAT INDEX
  VSB - VISIBILITY
$$




USA.gov is the U.S. government's official web portal to all federal, state and local government web resources and services.